KQA726 HKJK-FLKK

Flight info

Callsign KQA726
Flight time N/A
Altitude 34000
Route EVATO1U EVATO UP312 MB UR779 AVEKA/N0411F240 R779 OKSIX OKSIX1A
Aircraft B738/M-SDE2E3FGHIRWXY/LB1

Departure

Time N/A
Airport Jomo Kenyatta International Airport (HKJK)

Arrival

Time 2026-04-23 14:31
Airport Kenneth Kaunda International Airport (FLKK)
Time Latitude Longitude Altitude Speed Heading
2026-04-23 13:30 -11.21979 31.68614 34155 ft 436 kts 218°
2026-04-23 13:30 -11.25411 31.65939 34155 ft 437 kts 218°
2026-04-23 13:31 -11.29559 31.62705 34155 ft 437 kts 218°
2026-04-23 13:31 -11.31891 31.60887 34155 ft 436 kts 218°
2026-04-23 13:32 -11.34724 31.58676 34155 ft 436 kts 218°
2026-04-23 13:32 -11.36852 31.57016 34155 ft 436 kts 218°
2026-04-23 13:33 -11.38915 31.55406 34155 ft 434 kts 218°
2026-04-23 13:33 -11.40905 31.53853 34155 ft 435 kts 218°
2026-04-23 13:34 -11.42990 31.52225 34155 ft 437 kts 218°
2026-04-23 13:34 -11.45109 31.50570 34155 ft 437 kts 218°
2026-04-23 13:35 -11.47203 31.48934 34155 ft 437 kts 218°
2026-04-23 13:35 -11.49262 31.47326 34155 ft 437 kts 218°
2026-04-23 13:36 -11.51437 31.45627 34155 ft 436 kts 218°
2026-04-23 13:36 -11.54607 31.43149 34155 ft 436 kts 218°
2026-04-23 13:37 -11.59225 31.39539 34155 ft 436 kts 218°
2026-04-23 13:37 -11.63982 31.35818 34155 ft 437 kts 218°
2026-04-23 13:38 -11.68765 31.32076 34155 ft 437 kts 218°
2026-04-23 13:38 -11.73518 31.28355 34155 ft 436 kts 218°
2026-04-23 13:39 -11.77527 31.25215 34155 ft 436 kts 218°
2026-04-23 13:39 -11.80389 31.22973 34155 ft 436 kts 218°
2026-04-23 13:40 -11.83579 31.20474 34155 ft 436 kts 218°
2026-04-23 13:40 -11.88340 31.16742 34155 ft 437 kts 218°
2026-04-23 13:41 -11.93135 31.12981 34155 ft 437 kts 218°
2026-04-23 13:41 -11.97250 31.09753 34155 ft 438 kts 218°
2026-04-23 13:42 -12.01063 31.06760 34155 ft 438 kts 218°
2026-04-23 13:42 -12.05837 31.03011 34155 ft 439 kts 219°
2026-04-23 13:43 -12.10613 30.99259 34155 ft 439 kts 219°
2026-04-23 13:43 -12.15412 30.95487 34155 ft 440 kts 219°
2026-04-23 13:44 -12.20214 30.91712 34155 ft 439 kts 219°
2026-04-23 13:44 -12.24511 30.88331 34155 ft 439 kts 219°
2026-04-23 13:45 -12.28223 30.85410 34155 ft 439 kts 219°
2026-04-23 13:45 -12.32719 30.81871 34155 ft 439 kts 219°
2026-04-23 13:46 -12.37109 30.78413 34155 ft 439 kts 219°
2026-04-23 13:46 -12.41876 30.74656 34155 ft 439 kts 219°
2026-04-23 13:47 -12.46631 30.70908 34155 ft 439 kts 219°
2026-04-23 13:47 -12.51350 30.67186 34155 ft 439 kts 219°
2026-04-23 13:48 -12.56162 30.63388 34155 ft 439 kts 219°
2026-04-23 13:48 -12.60850 30.59687 34155 ft 439 kts 219°
2026-04-23 13:49 -12.65489 30.56023 34155 ft 439 kts 219°
2026-04-23 13:49 -12.69545 30.52818 34155 ft 439 kts 219°
2026-04-23 13:50 -12.74129 30.49194 34155 ft 439 kts 219°
2026-04-23 13:51 -12.82591 30.42499 34155 ft 439 kts 219°
2026-04-23 13:51 -12.86542 30.39372 34155 ft 439 kts 219°
2026-04-23 13:52 -12.90132 30.36530 34155 ft 439 kts 219°
2026-04-23 13:52 -12.94879 30.32769 34155 ft 439 kts 219°
2026-04-23 13:53 -12.99616 30.29020 34155 ft 439 kts 219°
2026-04-23 13:53 -13.03737 30.25758 34155 ft 437 kts 219°
2026-04-23 13:54 -13.07713 30.22608 34155 ft 435 kts 219°
2026-04-23 13:54 -13.12417 30.18879 34155 ft 434 kts 219°
2026-04-23 13:55 -13.17156 30.15124 34155 ft 433 kts 219°
2026-04-23 13:55 -13.21918 30.11353 34155 ft 434 kts 219°
2026-04-23 13:56 -13.26625 30.07608 34155 ft 434 kts 219°
2026-04-23 13:56 -13.31317 30.03874 34155 ft 434 kts 219°
2026-04-23 13:57 -13.34922 30.01020 34155 ft 433 kts 219°
2026-04-23 13:57 -13.38577 29.98115 34155 ft 434 kts 219°
2026-04-23 13:58 -13.42873 29.94694 33978 ft 430 kts 219°
2026-04-23 13:58 -13.43990 29.93806 33858 ft 425 kts 219°
2026-04-23 13:58 -13.45315 29.92753 33715 ft 419 kts 219°
2026-04-23 13:58 -13.46393 29.91895 33597 ft 414 kts 219°
2026-04-23 13:59 -13.47659 29.90888 33457 ft 409 kts 219°
2026-04-23 13:59 -13.48873 29.89922 33320 ft 403 kts 219°
2026-04-23 13:59 -13.50864 29.88335 33092 ft 395 kts 219°
2026-04-23 13:59 -13.52941 29.86680 32848 ft 386 kts 219°
2026-04-23 14:00 -13.53540 29.86202 32777 ft 383 kts 218°
2026-04-23 14:00 -13.54757 29.85234 32632 ft 379 kts 218°
2026-04-23 14:00 -13.56054 29.84201 32477 ft 377 kts 218°
2026-04-23 14:00 -13.57244 29.83253 32335 ft 379 kts 218°
2026-04-23 14:01 -13.58202 29.82490 32221 ft 380 kts 218°
2026-04-23 14:01 -13.59501 29.81454 32066 ft 383 kts 218°
2026-04-23 14:01 -13.61375 29.79961 31845 ft 385 kts 218°
2026-04-23 14:01 -13.63415 29.78335 31605 ft 386 kts 218°
2026-04-23 14:02 -13.64878 29.77169 31432 ft 385 kts 218°
2026-04-23 14:02 -13.66941 29.75523 31188 ft 385 kts 218°
2026-04-23 14:02 -13.69006 29.73876 30944 ft 385 kts 218°
2026-04-23 14:02 -13.71141 29.72173 30691 ft 385 kts 218°
2026-04-23 14:03 -13.73227 29.70508 30445 ft 386 kts 218°
2026-04-23 14:03 -13.75351 29.68813 30194 ft 386 kts 218°
2026-04-23 14:03 -13.77464 29.67126 29945 ft 387 kts 218°
2026-04-23 14:03 -13.79575 29.65441 29696 ft 387 kts 218°
2026-04-23 14:04 -13.81694 29.63748 29446 ft 388 kts 218°
2026-04-23 14:04 -13.83834 29.62039 29195 ft 389 kts 217°
2026-04-23 14:04 -13.85953 29.60345 28946 ft 389 kts 217°
2026-04-23 14:04 -13.88072 29.58651 28698 ft 390 kts 217°
2026-04-23 14:05 -13.90209 29.56943 28447 ft 390 kts 217°
2026-04-23 14:05 -13.92331 29.55245 28199 ft 391 kts 217°
2026-04-23 14:05 -13.94467 29.53537 27950 ft 392 kts 217°
2026-04-23 14:05 -13.96582 29.51845 27703 ft 392 kts 217°
2026-04-23 14:06 -13.98759 29.50102 27450 ft 393 kts 217°
2026-04-23 14:06 -14.00893 29.48395 27202 ft 393 kts 217°
2026-04-23 14:06 -14.03050 29.46668 26952 ft 394 kts 217°
2026-04-23 14:06 -14.05200 29.44945 26702 ft 395 kts 217°
2026-04-23 14:07 -14.07379 29.43200 26451 ft 396 kts 217°
2026-04-23 14:07 -14.11581 29.39609 25953 ft 398 kts 223°
2026-04-23 14:07 -14.13514 29.37586 25706 ft 400 kts 224°
2026-04-23 14:08 -14.15458 29.35556 25456 ft 400 kts 223°
2026-04-23 14:08 -14.17438 29.33531 25205 ft 401 kts 223°
2026-04-23 14:08 -14.19399 29.31523 24957 ft 402 kts 223°
2026-04-23 14:08 -14.21367 29.29500 24707 ft 403 kts 223°
2026-04-23 14:09 -14.23339 29.27472 24458 ft 404 kts 223°
2026-04-23 14:09 -14.25324 29.25431 24211 ft 404 kts 223°
2026-04-23 14:09 -14.27289 29.23411 24154 ft 403 kts 223°
2026-04-23 14:09 -14.29266 29.21376 24154 ft 406 kts 223°
2026-04-23 14:10 -14.31261 29.19325 24155 ft 407 kts 223°
2026-04-23 14:10 -14.33250 29.17277 24155 ft 408 kts 223°
2026-04-23 14:10 -14.35254 29.15213 24155 ft 407 kts 223°
2026-04-23 14:10 -14.37264 29.13143 24155 ft 407 kts 223°
2026-04-23 14:11 -14.39259 29.11087 24155 ft 407 kts 223°
2026-04-23 14:11 -14.41257 29.09029 24155 ft 407 kts 223°
2026-04-23 14:11 -14.43243 29.06982 24155 ft 407 kts 223°
2026-04-23 14:11 -14.45217 29.04947 24155 ft 407 kts 223°
2026-04-23 14:12 -14.47219 29.02882 24155 ft 407 kts 223°
2026-04-23 14:12 -14.48651 29.01405 24155 ft 407 kts 223°
2026-04-23 14:12 -14.49586 29.00439 24155 ft 407 kts 223°
2026-04-23 14:12 -14.50878 28.99107 24155 ft 406 kts 223°
2026-04-23 14:13 -14.52232 28.97709 24155 ft 406 kts 223°
2026-04-23 14:13 -14.53941 28.95945 24155 ft 405 kts 223°
2026-04-23 14:13 -14.55838 28.93986 24155 ft 405 kts 223°
2026-04-23 14:13 -14.57816 28.91944 24155 ft 405 kts 223°
2026-04-23 14:14 -14.59806 28.89887 24155 ft 404 kts 223°
2026-04-23 14:14 -14.61805 28.87822 24155 ft 404 kts 223°
2026-04-23 14:14 -14.63779 28.85782 24155 ft 404 kts 223°
2026-04-23 14:14 -14.65763 28.83731 24068 ft 401 kts 223°
2026-04-23 14:15 -14.67728 28.81697 23589 ft 397 kts 223°
2026-04-23 14:15 -14.69535 28.79828 23084 ft 395 kts 223°
2026-04-23 14:15 -14.71270 28.78033 22580 ft 393 kts 223°
2026-04-23 14:15 -14.72827 28.76421 22125 ft 392 kts 222°
2026-04-23 14:16 -14.74306 28.74890 21689 ft 391 kts 222°
2026-04-23 14:16 -14.75183 28.73982 21431 ft 390 kts 222°
2026-04-23 14:16 -14.76680 28.72432 20989 ft 389 kts 222°
2026-04-23 14:16 -14.78484 28.70564 20453 ft 387 kts 222°
2026-04-23 14:17 -14.80392 28.68587 19887 ft 386 kts 222°
2026-04-23 14:17 -14.81650 28.67284 19513 ft 385 kts 221°
2026-04-23 14:17 -14.84115 28.64626 18761 ft 385 kts 226°
2026-04-23 14:17 -14.85755 28.62437 18197 ft 386 kts 231°
2026-04-23 14:18 -14.87324 28.60154 17626 ft 385 kts 231°
2026-04-23 14:18 -14.88888 28.57909 17062 ft 384 kts 230°
2026-04-23 14:18 -14.90441 28.55689 16504 ft 384 kts 231°
2026-04-23 14:18 -14.92014 28.53422 15936 ft 383 kts 231°
2026-04-23 14:19 -14.93561 28.51185 15376 ft 383 kts 231°
2026-04-23 14:19 -14.95115 28.48934 14814 ft 382 kts 231°
2026-04-23 14:19 -14.96650 28.46709 14258 ft 382 kts 231°
2026-04-23 14:19 -14.98206 28.44453 13694 ft 382 kts 231°
2026-04-23 14:20 -14.99741 28.42226 13135 ft 382 kts 231°
2026-04-23 14:20 -15.01280 28.39991 12576 ft 381 kts 232°
2026-04-23 14:20 -15.02823 28.37746 12012 ft 381 kts 232°
2026-04-23 14:20 -15.04328 28.35503 11709 ft 374 kts 233°
2026-04-23 14:21 -15.05774 28.33327 11244 ft 372 kts 233°
2026-04-23 14:21 -15.07111 28.31325 10638 ft 368 kts 233°
2026-04-23 14:21 -15.08416 28.29414 10123 ft 355 kts 230°
2026-04-23 14:21 -15.09946 28.27864 9508 ft 342 kts 211°
2026-04-23 14:22 -15.11812 28.26948 9059 ft 324 kts 192°
2026-04-23 14:22 -15.13752 28.26568 8677 ft 307 kts 183°
2026-04-23 14:22 -15.15722 28.26331 8310 ft 295 kts 183°
2026-04-23 14:22 -15.16849 28.26182 8104 ft 288 kts 183°
2026-04-23 14:23 -15.18761 28.25931 7862 ft 275 kts 183°
2026-04-23 14:23 -15.20458 28.25717 7783 ft 266 kts 182°
2026-04-23 14:23 -15.22132 28.25508 7696 ft 257 kts 182°
2026-04-23 14:23 -15.23781 28.25316 7474 ft 253 kts 181°
2026-04-23 14:24 -15.25359 28.25156 7216 ft 250 kts 181°
2026-04-23 14:24 -15.26920 28.24994 6969 ft 247 kts 181°
2026-04-23 14:24 -15.28443 28.24859 6747 ft 241 kts 175°
2026-04-23 14:24 -15.29859 28.25190 6750 ft 229 kts 146°
2026-04-23 14:25 -15.30880 28.26123 6705 ft 224 kts 122°
2026-04-23 14:25 -15.31364 28.27097 6590 ft 210 kts 104°
2026-04-23 14:25 -15.31531 28.28016 6402 ft 202 kts 95°
2026-04-23 14:25 -15.31609 28.28778 6286 ft 195 kts 95°
2026-04-23 14:26 -15.31683 28.29459 6178 ft 187 kts 95°
2026-04-23 14:26 -15.31742 28.30063 6085 ft 180 kts 94°
2026-04-23 14:26 -15.31832 28.31058 5933 ft 174 kts 94°
2026-04-23 14:26 -15.31918 28.32033 5804 ft 174 kts 94°
2026-04-23 14:27 -15.32021 28.33205 5651 ft 176 kts 94°
2026-04-23 14:27 -15.32091 28.33994 5578 ft 169 kts 94°
2026-04-23 14:27 -15.32165 28.34844 5517 ft 165 kts 94°
2026-04-23 14:27 -15.32224 28.35513 5308 ft 163 kts 94°
2026-04-23 14:28 -15.32270 28.36039 5173 ft 157 kts 94°
2026-04-23 14:28 -15.32332 28.36738 5178 ft 154 kts 94°
2026-04-23 14:28 -15.32394 28.37452 5066 ft 163 kts 94°
2026-04-23 14:28 -15.32459 28.38193 4812 ft 156 kts 94°
2026-04-23 14:29 -15.32535 28.39059 4664 ft 155 kts 94°
2026-04-23 14:29 -15.32591 28.39701 4529 ft 160 kts 94°
2026-04-23 14:29 -15.32677 28.40694 4332 ft 159 kts 94°
2026-04-23 14:29 -15.32762 28.41677 4152 ft 155 kts 94°
2026-04-23 14:30 -15.32848 28.42633 3972 ft 153 kts 94°
2026-04-23 14:30 -15.32926 28.43537 3809 ft 151 kts 94°
2026-04-23 14:30 -15.33002 28.44392 3785 ft 126 kts 94°
2026-04-23 14:31 -15.33097 28.45319 3766 ft 36 kts 95°
2026-04-23 14:31 -15.33102 28.45494 3766 ft 27 kts 94°
2026-04-23 14:31 -15.33115 28.45651 3764 ft 26 kts 95°
2026-04-23 14:31 -15.33130 28.45836 3763 ft 32 kts 94°
2026-04-23 14:32 -15.33110 28.45969 3763 ft 13 kts 37°
2026-04-23 14:32 -15.33000 28.45951 3763 ft 20 kts 326°
2026-04-23 14:32 -15.32941 28.45864 3764 ft 25 kts 283°
2026-04-23 14:32 -15.32929 28.45727 3764 ft 29 kts 276°
2026-04-23 14:33 -15.32918 28.45613 3765 ft 33 kts 277°
2026-04-23 14:33 -15.32899 28.45433 3766 ft 34 kts 274°
2026-04-23 14:33 -15.32889 28.45292 3770 ft 30 kts 276°
2026-04-23 14:33 -15.32874 28.45126 3774 ft 24 kts 276°
2026-04-23 14:34 -15.32860 28.44965 3777 ft 20 kts 274°
2026-04-23 14:34 -15.32847 28.44808 3780 ft 25 kts 275°
2026-04-23 14:34 -15.32821 28.44685 3784 ft 12 kts 308°
2026-04-23 14:34 -15.32758 28.44626 3789 ft 14 kts 318°
2026-04-23 14:35 -15.32713 28.44595 3794 ft 5 kts 18°
2026-04-23 14:35 -15.32700 28.44609 3794 ft 5 kts 53°
2026-04-23 14:35 -15.32679 28.44637 3793 ft 7 kts 52°
2026-04-23 14:35 -15.32645 28.44658 3794 ft 5 kts
2026-04-23 14:36 -15.32643 28.44658 3794 ft 0 kts